User: anonymous   Login
Location: Unspecified
(0.0000°N, 0.0000°E)
Time: 19:27:14
(UTC+00:00)
Language:

GONETS M 09 (M19) - Orbit

View from above orbital plane
View from above orbital plane
View from above satellite
View from above satellite

Ground track
Ground track

The orbit data is extracted from the following two-line orbital elements,

1 40062U 14036B   21026.27409752  .00000004  00000-0 -45502-4 0  9998
2 40062  82.5103  89.8850 0023673 125.6907 234.6382 12.42885280297985
Epoch (UTC): 26 January 2021 06:34:42
Eccentricity: 0.0023673
inclination: 82.5103°
perigee height: 1476 km
apogee height: 1513 km
right ascension of ascending node: 89.8850°
argument of perigee: 125.6907°
revolutions per day: 12.42885280
mean anomaly at epoch: 234.6382°
orbit number at epoch: 29798

The dashed part of the orbit path shows where the satellite is in the earth's shadow,  

DLR